Regional Weather Roundup
Issued by NWS

Home | Current Version | Previous Version | Graphics & Text | Print | Product List | Glossary On
Versions: 1 2 3 4 5 6 7 8 9 10 11 12 13 14 15 16 17 18 19 20 21 22 23 24 25 26 27 28 29 30 31 32 33 34 35 36 37 38 39 40 41 42 43 44 45 46 47 48 49 50
000
ASUS45 KSLC 010810
RWRUT

UTAH REGIONAL WEATHER ROUNDUP
NATIONAL WEATHER SERVICE SALT LAKE CITY UT
200 AM MDT WED OCT 01 2014

UTZ001>011-023>025-010900-

NORTHERN UTAH

CITY           SKY/WX    TMP DP  RH WIND       PRES   REMARKS
HILL AFB       CLOUDY    48  36  64 N8        29.98R
LOGAN          NOT AVBL
OGDEN          CLOUDY    47  39  74 W3        29.97R
PROVO AIRPORT  CLOUDY    48  45  87 SE5       29.95F
SALT LAKE CITY LGT RAIN  51  47  86 W7        29.97S
VERNAL         CLOUDY    48  43  82 W5        29.94R
WENDOVER       PTCLDY    48  32  53 N5        30.01R
HEBER CITY     CLOUDY    45  45 100 N3        29.96F
WEST JORDAN    CLOUDY    48  46  93 W3        29.98S

$$

UTZ012>022-026-027-010900-

SOUTHERN UTAH

CITY           SKY/WX    TMP DP  RH WIND       PRES   REMARKS
BRYCE CANYON   PTCLDY    36  33  89 W6        30.02F WCI  31
CEDAR CITY     CLOUDY    52  40  63 E8        29.95R
MILFORD        MOCLDY    52  47  83 N10       29.94F
MOAB/CYNLANDS  CLEAR     54  45  71 SE3       29.85F
PRICE          LGT RAIN  48  40  73 NW20G35   29.97R
ST GEORGE      CLOUDY    63  39  42 SE3       29.84S
KANAB            N/A     46  43  87 NE3       29.96S

$$

REGIONAL REPORTS     COLORADO/ARIZONA

CITY           SKY/WX    TMP DP  RH WIND       PRES   REMARKS
CRAIG, CO      CLOUDY    44  42  93 CALM      29.99S
GRAND JUNCTION PTCLDY    49  42  77 SE10      29.91F
RIFLE          MOCLDY    44  40  85 E3        29.97S
MONTROSE       PTCLDY    45  39  79 S6        29.98F
CORTEZ         CLEAR     40  38  93 SE3       29.98S
PAGE, AZ       NOT AVBL
GRAND CANYON   PTCLDY    37  35  92 CALM      30.02F
KINGMAN        CLEAR     57  43  59 SE6       29.86F
FLAGSTAFF      CLEAR     43  35  73 SW3       30.05F

$$

REGIONAL REPORTS    NEVADA/IDAHO/WYOMING

CITY           SKY/WX    TMP DP  RH WIND       PRES   REMARKS
LAS VEGAS, NV  CLEAR     71  37  28 S8        29.73R
ELY            PTCLDY    44  38  79 N12       30.02F
ELKO           CLEAR     34  28  79 S3        30.06F
POCATELLO, ID  PTCLDY    41  35  79 S9        29.98S
BURLEY         PTCLDY    44  34  67 W14       29.96F
EVANSTON, WY   MOCLDY    38  36  92 CALM      30.00S
ROCK SPRINGS   MOCLDY    38  36  92 SW10      29.97S WCI  31

$$



USA.gov is the U.S. government's official web portal to all federal, state and local government web resources and services.